This is the latest recevied weather packets stored in our database for station/object W4OTS. If no packets are shown the sender has not sent any weather packets the latest 10 day(s).
| Time | Temp. | Humidity | Pressure | Rain* | Wind** | Luminosity | Snow |
|---|---|---|---|---|---|---|---|
| 1778163607 | 17.22° C | 99% | 1012.2 hPa | 0 mm | - | 91 W/m² | - |
| 1778163303 | 17.22° C | 99% | 1012.4 hPa | 0 mm | - | 69 W/m² | - |
| 1778163000 | 17.22° C | 99% | 1012.3 hPa | 0 mm | - | 74 W/m² | - |
| 1778162697 | 17.22° C | 99% | 1012.2 hPa | 0 mm | - | 53 W/m² | - |
| 1778162394 | 17.22° C | 99% | 1012.2 hPa | 0 mm | - | 45 W/m² | - |
| 1778162090 | 17.22° C | 99% | 1012 hPa | 0 mm | - | 58 W/m² | - |
| 1778161788 | 17.22° C | 99% | 1012.1 hPa | 0 mm | - | 83 W/m² | - |
| 1778161484 | 17.22° C | 99% | 1012 hPa | 0 mm | - | 93 W/m² | - |
| 1778161181 | 17.22° C | 99% | 1012.1 hPa | 0 mm | - | 70 W/m² | - |
| 1778160877 | 17.22° C | 99% | 1011.9 hPa | 1.78 mm | - | 69 W/m² | - |
| 1778160576 | 17.22° C | 99% | 1011.8 hPa | 1.78 mm | - | 59 W/m² | - |
| 1778160271 | 17.22° C | 99% | 1011.8 hPa | 0 mm | - | 57 W/m² | - |
| 1778159968 | 16.67° C | 99% | 1011.8 hPa | 0 mm | - | 32 W/m² | - |
| 1778159665 | 16.67° C | 99% | 1011.9 hPa | 0 mm | - | 32 W/m² | - |
| 1778159362 | 16.67° C | 99% | 1011.5 hPa | 1.78 mm | - | 29 W/m² | - |
| 1778159059 | 16.67° C | 99% | 1011.5 hPa | 1.78 mm | - | 26 W/m² | - |
| 1778158758 | 16.67° C | 99% | 1011.3 hPa | 1.27 mm | - | 35 W/m² | - |
| 1778158455 | 16.67° C | 99% | 1011.2 hPa | 1.27 mm | - | 50 W/m² | - |
| 1778158153 | 16.67° C | 99% | 1011.5 hPa | 1.27 mm | - | 37 W/m² | - |
| 1778157848 | 16.67° C | 99% | 1011.3 hPa | 0 mm | - | 33 W/m² | - |
| 1778157547 | 16.67° C | 99% | 1011.4 hPa | 1.78 mm | - | 32 W/m² | - |
| 1778157243 | 16.67° C | 99% | 1011.6 hPa | 1.78 mm | - | 32 W/m² | - |
| 1778156940 | 16.67° C | 99% | 1011.9 hPa | 1.27 mm | - | 15 W/m² | - |
| 1778156635 | 16.67° C | 99% | 1012.3 hPa | 6.1 mm | - | 15 W/m² | - |
| 1778156332 | 16.67° C | 99% | 1012.4 hPa | 7.87 mm | - | 15 W/m² | - |
* Rain latest hour (hover to see other rain measurements)
** Current wind speed in m/s (hover to see current wind gust speed)